DELTA 2 R/B(2) (PAM-D), 28876

Orbit data source: Space-Track

DELTA 2 R/B(2) (PAM-D), 28876 is space debris in HEO originally from a launch on Mon, 26 Sep 2005 UTC launched from the Air Force Eastern Test Range (AFETR). Debris objects in space refer to the collection of defunct objects orbiting the Earth. Examples of debris include non-operational satellites, rocket bodies, and fragments generated from explosions, collisions, or faulty payload assembly.

Loading next visibility...
Identifier
28876, 2005-038C
Orbit
HEO
Country
Flag of USUS
Related business
Manufacturer
ATK/Elkton
Mission
Spacecraft
Bus & Motor
STAR 48, Unknown motor
Mass
133 kg wet, 132 kg dry
Launch date (UTC)
2005-09-26 (21 years ago)
Launch vehicle
Unknown
Launch site
Air Force Eastern Test Range (AFETR)
Object type
Payload
Rocket body
Debris
Shape & HBR
Sphere + Cone, 1.1 m
Radar Cross Section
2.822 m², Large (>1 m²)

Expand to show TLE details & history
Last TLE update: 3 days ago

TLE from 3 days ago
0 DELTA 2 R/B(2) (PAM-D)
1 28876U 05038C   26167.79215600  .00012959  00000-0  78299-3 0  9993
2 28876  39.5515 336.7901 5067111 296.1607  20.8499  5.57876532350011
Epoch: 2026-06-16T19:00Z
TLE epoch observation values (Epoch: 2026-06-16T19:00:42.278Z)
Latitude
-0.00008°
Longitude
146.54624°
Altitude
1,779.84 km
Speed
8.249 km/s
True Right ascension
22h 27m 07s
True Declination
0° 00' 00"
Sunlit
Object was in daylight at epoch
Visualization orbit readout
Latitude
Unknown
Longitude
Unknown
Altitude
Unknown
Speed
Unknown
Apparent Right ascension
Unknown
Apparent Declination
Unknown
Sunlit
N/A
Visualization observer readout
Local Sidereal Time
19:14:32
Azimuth
Unknown
Elevation
Unknown
Doppler factor
Unknown
Orbital elements
Apogee altitude
13,858.494 km
Perigee altitude
247.224 km
Semi-major axis
13,430.996 km
Eccentricity
0.50671
Inclination
39.5515°
RAAN
336.7901°
Arg. of periapsis
296.1607°
True anomaly
63.78822°
Mean anomaly
20.8499°
Eccentric anomaly
39.19874°
Mean motion
1.39438 °/min
Orbital period
258.18 mins
BSTAR
0.00078299
Loading maneuver chart data...
Computing Atmospheric mass density...
Loading historical data...
Loading historical data...
Loading historical data...
Loading historical data...
Loading historical data...
Loading historical data...
Loading historical data...
Other satellites on launch #38 in the year 2005 (2005-09-26 UTC)

Documentation

Showing up to 5 results
|